TIANWANG 1B (TW-1B)
1 40927U 15051C   19041.44168684  .00008122  00000-0  13851-3 0  9994
2 40927  97.1577  87.5035 0010093 128.9164 355.9682 15.51554326190119
TIANWANG 1A (TW-1A)
1 40928U 15051D   19041.39259503  .00002581  00000-0  66718-4 0  9994
2 40928  97.1605  75.4939 0011264 169.9828 304.7683 15.39958501189428
LAPAN A2
1 40931U 15052B   19041.01650272  .00000676  00000-0  51043-5 0  9995
2 40931   5.9969 254.1775 0012916 131.9249 228.1979 14.76597272182218
LQSAT
1 40958U 15057A   19041.38673652  .00000015  00000-0  10084-4 0  9992
2 40958  97.9145 113.9544 0016989 295.6612  64.2846 14.73066398179918
CHUBUSAT 2
1 41338U 16012B   19040.93839116 +.00000272 +00000-0 +14386-4 0  9990
2 41338 031.0021 242.9786 0014033 267.9773 091.9255 15.00092025163564
CHUBUSAT 3
1 41339U 16012C   19040.92310815 +.00000281 +00000-0 +15105-4 0  9990
2 41339 031.0097 241.3420 0013751 275.6724 084.2342 15.00271776163557
OUFTI-1
1 41458U 16025C   19041.45382031  .00000751  00000-0  42311-4 0  9995
2 41458  98.1105 121.7937 0169284  68.3019 293.6133 15.05398731153283
E-STAR-2
1 41459U 16025D   19041.44121460  .00001028  00000-0  56633-4 0  9992
2 41459  98.1092 121.5118 0170263  69.2014 292.7366 15.05069556153257
AAUSAT 4
1 41460U 16025E   19041.43661819  .00001712  00000-0  89892-4 0  9993
2 41460  98.1055 122.4501 0160603  63.1679 298.5881 15.06789664153358
NUSAT 1
1 41557U 16033B   19041.41182058  .00001124  00000-0  45304-4 0  9997
2 41557  97.4236 129.6724 0014848  36.9496 323.2762 15.26863235150516
BEESAT 4
1 41619U 16040W   19041.12812846  .00001255  00000-0  56657-4 0  9995
2 41619  97.3852 105.6592 0013051 112.9248 247.3368 15.22759956134295
PRATHAM
1 41783U 16059A   19040.94981345 +.00000040 +00000-0 +16929-4 0  9996
2 41783 098.0863 103.2572 0034787 069.8251 290.6687 14.62971917126722
ALSAT 1N
1 41789U 16059G   19041.38965135  .00000066  00000-0  21492-4 0  9999
2 41789  98.0881 105.4077 0029582  59.0349 301.3756 14.64215106126874
NAYIF 1
1 42017U 17008BX  19041.31459133  .00001297  00000-0  54676-4 0  9995
2 42017  97.4194 109.6592 0004698 258.1608 101.9103 15.25129176110353
LILACSAT-1
1 42725U 98067ME  19041.41859074  .00116840  16277-4  35035-3 0  9999
2 42725  51.6303 207.9629 0000422  55.9408  31.8547 15.92151981 98135
MAX VALIER SAT
1 42778U 17036P   19040.92115357 +.00000797 +00000-0 +38144-4 0  9999
2 42778 097.3729 101.3176 0011300 322.2845 037.7598 15.21757840090656
